Aeroporto :
LOGIN :

Iscrizione | Disclaimer

   EN    FR    IT 

 










Sommario :    VFR   VFR Marginale   IFR   IFR Intensivo   IFR Molto Intensivo
Visibilità : 
Base nubi : 
>= 8 km
>= 3000ft
5 / 8 km
1000 / 3000 ft
1500m / 5 km
500 / 1000 ft
800 / 1500m
200 / 500 ft
< 800m
< 200 ft
Simboli :   Temporali  Nebbia  Neve Forte  Precipitazioni Forti  Vento > 20 kt
SIGMETs :   Varie  Temporali  Ghiacco  Turbolenza  Onda orograficha  Ceneri Vulcaniche







- Altitudine del aeroporto : 436 ft
- Codice IATA : BTS


LZIB - Bratislava

ULTIMO METAR :
  • 240700Z 04006KT 360V070 CAVOK 25/16 Q1019 NOSIG

METARs OBSOLETI :
  • 240630Z VRB02KT CAVOK 25/16 Q1019 NOSIG
  • 240600Z VRB01KT CAVOK 24/17 Q1019 NOSIG
  • 240530Z VRB02KT CAVOK 23/17 Q1019 NOSIG
  • 240500Z 03003KT CAVOK 21/17 Q1019 NOSIG
  • 240430Z VRB01KT CAVOK 20/16 Q1019 NOSIG

TAF TAF LZIB
Valido dal 24 a 06 ore il 25 a 06 ore UTC


240500Z 2406/2506 04005KT CAVOK
TEMPO 2408/2410 9999 FEW045
TEMPO 2408/2418 07010KT
Nessun NOTAM noto per questo aeroporto.



MetMap, La meteo Aeronautica in un colpo d'occhio ! - Copyright ORBIFLY Dicembre 2007 - Disclaimer

ORBIFLY MET'MAP TEAM :

Programmazione e sviluppo : Alexandra Zaïnal
Concezione e sviluppo : Baudouin d'Aumeries
Co-Programmazione e sviluppo : Marc-Olivier Méhu
Supporto tecnico e logistico : Manuel Goepfert
Aiuto per la traduzione : Arnaldo La Scala

Contatto : metmap@orbifly.com




FONTI E CREDITI :

   NOAA